Scottsbluff, NE

11:17 PM MDT on August 17, 2017 (GMT -0600)
Heilig

Weather History for KBFF - August, 2014

Change the Weather History Date:

Tuesday, August 12, 2014

  Actual Average Record
Temperature  
Mean Temperature 74 °F 73 °F  
Max Temperature 91 °F 89 °F 100 °F (1938)
Min Temperature 57 °F 57 °F 42 °F (2004)
Degree Days  
Heating Degree Days 0 0  
Month to date heating degree days 0 0  
Since 1 June heating degree days 60 66  
Since 1 July heating degree days 7 6  
Cooling Degree Days 9 8  
Month to date cooling degree days 104 105  
Year to date cooling degree days 508 541  
Since 1 June cooling degree days 481 518  
Growing Degree Days 24 (Base 50)    
Moisture  
Dew Point 59 °F    
Average Humidity 65    
Maximum Humidity 93    
Minimum Humidity 36    
Precipitation  
Precipitation 0.00 in 0.04 in 0.77 in (2005)
Month to date precipitation 0.45 0.58  
Year to date precipitation 10.83 11.58  
Snow  
Snow 0.00 in 0.00 in - ()
Month to date snowfall 0.0 0.0  
Since 1 July snowfall 0.0 0.0  
Snow Depth 0.00 in    
Sea Level Pressure  
Sea Level Pressure 30.06 in    
Wind  
Wind Speed 10 mph (ESE)    
Max Wind Speed 17 mph    
Max Gust Speed 20 mph    
Visibility 10 miles    
Events      
T = Trace of Precipitation, MM = Missing Value Source: NWS Daily Summary

Daily Weather History Graph

Daily Weather History Graph

Search for Another Location

Airport or City:

Trip Planner

Search our weather history database for the weather conditions in past years. The results will help you decide how hot, cold, wet, or windy it might be!

Date:

Astronomy

Aug. 12, 2014 Rise Set
Actual Time 5:59 AM MDT 7:58 PM MDT
Civil Twilight 5:29 AM MDT 8:28 PM MDT
Nautical Twilight 4:52 AM MDT 9:05 PM MDT
Astronomical Twilight 4:11 AM MDT 9:45 PM MDT
Moon 9:03 PM MDT (8/12) 8:22 AM MDT (8/12)
Length of Visible Light 14h 59m
Length of Day
13h 59m
Waning Gibbous, 94% of the Moon is Illuminated
Aug 12
Waning Gibbous
Aug 17
Last Quarter
Aug 25
New
Sep 2
First Quarter
Sep 8
Full

Hourly Weather History & Observations

Time (MDT) Temp. Heat Index Dew Point Humidity Pressure Visibility Wind Dir Wind Speed Gust Speed Precip Events Conditions
12:53 AM 63.0 °F - 60.1 °F 90% 30.13 in 9.0 mi ESE 9.2 mph - N/A   Clear
1:53 AM 62.1 °F - 60.1 °F 93% 30.12 in 9.0 mi ESE 6.9 mph - N/A   Clear
2:53 AM 60.8 °F - 57.2 °F 88% 30.24 in 9.0 mi ESE 6.9 mph - N/A   Clear
3:53 AM 60.1 °F - 57.0 °F 90% 30.11 in 9.0 mi East 8.1 mph - N/A   Clear
4:53 AM 57.9 °F - 55.9 °F 93% 30.11 in 10.0 mi East 5.8 mph - N/A   Clear
5:53 AM 57.2 °F - 55.4 °F 94% 30.24 in 10.0 mi East 6.9 mph - N/A   Clear
6:53 AM 57.9 °F - 55.0 °F 90% 30.12 in 9.0 mi ESE 6.9 mph - N/A   Clear
7:53 AM 63.0 °F - 55.9 °F 78% 30.12 in 10.0 mi ESE 9.2 mph - N/A   Clear
8:53 AM 66.0 °F - 57.0 °F 73% 30.12 in 10.0 mi ESE 8.1 mph - N/A   Clear
9:53 AM 70.0 °F - 57.9 °F 65% 30.11 in 10.0 mi Variable 6.9 mph - N/A   Clear
11:53 AM 78.1 °F - 60.1 °F 54% 30.07 in 10.0 mi East 8.1 mph - N/A   Clear
12:53 PM 82.9 °F 83.2 °F 60.1 °F 46% 30.05 in 10.0 mi East 9.2 mph - N/A   Clear
1:53 PM 87.1 °F 87.0 °F 61.0 °F 41% 30.02 in 10.0 mi East 11.5 mph - N/A   Clear
2:53 PM 89.1 °F 88.8 °F 60.1 °F 38% 29.99 in 10.0 mi East 15.0 mph - N/A   Clear
3:53 PM 91.0 °F 90.9 °F 61.0 °F 36% 29.96 in 10.0 mi East 13.8 mph - N/A   Clear
4:53 PM 88.0 °F 87.9 °F 61.0 °F 40% 29.96 in 10.0 mi East 11.5 mph - N/A   Clear
5:53 PM 88.0 °F 88.4 °F 62.1 °F 42% 29.95 in 10.0 mi East 11.5 mph - N/A   Clear
6:53 PM 84.0 °F 84.4 °F 61.0 °F 46% 29.95 in 10.0 mi East 12.7 mph - N/A   Clear
7:53 PM 79.0 °F - 60.1 °F 52% 29.95 in 10.0 mi East 12.7 mph - N/A   Clear
8:53 PM 75.0 °F - 60.1 °F 60% 29.97 in 10.0 mi ESE 12.7 mph - N/A   Clear
9:53 PM 72.0 °F - 60.1 °F 66% 30.00 in 10.0 mi ESE 12.7 mph - N/A   Clear
10:53 PM 70.0 °F - 60.1 °F 71% 29.99 in 10.0 mi ESE 10.4 mph - N/A   Clear
11:53 PM 66.2 °F - 59.0 °F 78% 30.13 in 10.0 mi ESE 10.4 mph - N/A   Clear